{"data":{"norad_id":58711,"intl_designator":"2024-002G","name":"STARLINK-31031","alt_names":[],"object_type":"PAYLOAD","status":"ACTIVE","operator":null,"country":"US","launch_date":"2024-01-03","launch_site_code":"AFWTR","launch_vehicle":null,"mission":null,"orbit_class":"UNKNOWN","rcs_meters":null,"size_class":null,"mass_kg":null,"dimensions":null,"purposes":["comms"],"wikipedia_slug":null,"has_3d_model":false,"image_url":null,"decayed_at":null,"tle_current":{"epoch":"2026-05-25T05:06:04.709664Z","epoch_age_seconds":63565,"freshness":"FRESH","line1":"1 58711U 24002G   26145.21255451  .00000529  00000+0  26796-4 0  9992","line2":"2 58711  53.1619 234.3383 0000711 106.3551 253.7530 15.34384444133737","mean_motion":15.34384444,"eccentricity":7.11e-5,"inclination_deg":53.1619,"raan_deg":234.3383,"arg_perigee_deg":106.3551,"mean_anomaly_deg":253.753,"bstar":2.6796e-5,"rev_number":13373,"period_min":93.848709535014,"perigee_km":462.26308927954,"apogee_km":463.23586333647,"semimajor_km":6840.886476308,"source":"CELESTRAK","updated_at":"2026-05-25T13:38:18.715870Z"}}}